[ hide orbit diagram ]
For accurate long-term ephemerides, please instead use our Horizons system.This orbit viewer was implemented using two-body methods, and hence should not be used for determining accurate long-term trajectories (over several years or decades) or planetary encounter circumstances.
[ revert to old Java-based viewer ]
Orbital Elements at Epoch 2458600.5 (2019-Apr-27.0) TDB
Reference: JPL 10 (heliocentric ecliptic J2000)
Element | Value | Uncertainty (1-sigma) | Units |
e | .1611914626347402 | 7.7544e-08 | |
a | 2.622626965549582 | 8.3235e-08 | au |
q | 2.199881889027335 | 1.7455e-07 | au |
i | 4.136975923685222 | 1.146e-05 | deg |
node | 83.48762572960908 | 0.00016673 | deg |
peri | 329.8601621370347 | 0.00022443 | deg |
M | 58.18425083775517 | 0.00016196 | deg |
tp | 2458349.770083321951 (2018-Aug-19.27008332) | 0.00068664 | TDB |
period | 1551.326496508349 4.25 | 7.3852e-05 2.022e-07 | d yr |
n | .2320594670498253 | 1.1047e-08 | deg/d |
Q | 3.04537204207183 | 9.6651e-08 | au |
|
| | Orbit Determination Parameters
Additional Information
|
[ show covariance matrix ]
Physical Parameter Table
Parameter |
Symbol |
Value |
Units |
Sigma |
Reference |
Notes |
absolute magnitude |
H |
17.4 |
|
n/a |
MPO323709 |
|
|
434581 (2005 UO106) Discovered 2005-Oct-22 by Spacewatch at Kitt Peak |
Reference: | Last Updated: 2015-06-04 |
|
|